WAT5464 BKPR-LQSA

Flight info

Callsign WAT5464
Flight time 0h 43m
Altitude 32000
Route DOLEV1D DOLEV L608 KEB
Aircraft P180/L-SBDFGM3RWXY/LB1

Departure

Time 2026-04-21 00:03
Airport Priština Adem Jashari International Airport (BKPR)

Arrival

Time 2026-04-21 00:47
Airport Sarajevo International Airport (LQSA)
Time Latitude Longitude Altitude Speed Heading
2026-04-20 23:45 42.58424 21.03087 1787 ft 0 kts 312°
2026-04-20 23:50 42.58424 21.03080 1787 ft 2 kts 257°
2026-04-20 23:50 42.58393 21.03103 1787 ft 8 kts 133°
2026-04-20 23:50 42.58359 21.03170 1789 ft 9 kts 103°
2026-04-20 23:51 42.58333 21.03234 1790 ft 10 kts 165°
2026-04-20 23:51 42.58248 21.03244 1788 ft 15 kts 175°
2026-04-20 23:51 42.58134 21.03257 1786 ft 14 kts 176°
2026-04-20 23:51 42.58063 21.03263 1785 ft 11 kts 176°
2026-04-20 23:52 42.57973 21.03275 1783 ft 15 kts 173°
2026-04-20 23:52 42.57857 21.03286 1781 ft 17 kts 175°
2026-04-20 23:52 42.57768 21.03293 1781 ft 10 kts 187°
2026-04-20 23:52 42.57729 21.03219 1781 ft 11 kts 223°
2026-04-20 23:53 42.57657 21.03207 1781 ft 6 kts 176°
2026-04-20 23:53 42.57604 21.03218 1781 ft 10 kts 148°
2026-04-20 23:53 42.57573 21.03310 1781 ft 12 kts 147°
2026-04-20 23:53 42.57487 21.03324 1781 ft 11 kts 176°
2026-04-20 23:54 42.57404 21.03333 1781 ft 13 kts 175°
2026-04-20 23:54 42.57308 21.03339 1781 ft 12 kts 177°
2026-04-20 23:54 42.57243 21.03346 1781 ft 0 kts 175°
2026-04-20 23:54 42.57240 21.03346 1781 ft 1 kts 174°
2026-04-20 23:55 42.57226 21.03348 1781 ft 3 kts 174°
2026-04-20 23:55 42.57215 21.03349 1781 ft 1 kts 174°
2026-04-20 23:55 42.57215 21.03350 1781 ft 0 kts 174°
2026-04-20 23:59 42.57214 21.03350 1780 ft 1 kts 174°
2026-04-20 23:59 42.57184 21.03354 1780 ft 8 kts 175°
2026-04-20 23:59 42.57104 21.03363 1779 ft 14 kts 175°
2026-04-21 00:00 42.57012 21.03373 1780 ft 14 kts 175°
2026-04-21 00:00 42.56903 21.03385 1778 ft 18 kts 176°
2026-04-21 00:00 42.56761 21.03398 1775 ft 22 kts 175°
2026-04-21 00:00 42.56610 21.03414 1777 ft 22 kts 177°
2026-04-21 00:01 42.56451 21.03428 1777 ft 23 kts 175°
2026-04-21 00:01 42.56304 21.03444 1782 ft 19 kts 176°
2026-04-21 00:01 42.56176 21.03458 1786 ft 18 kts 175°
2026-04-21 00:01 42.56049 21.03471 1789 ft 18 kts 176°
2026-04-21 00:02 42.55925 21.03483 1791 ft 18 kts 175°
2026-04-21 00:02 42.55809 21.03528 1793 ft 18 kts 121°
2026-04-21 00:02 42.55812 21.03692 1793 ft 18 kts 71°
2026-04-21 00:02 42.56060 21.03711 1790 ft 81 kts 355°
2026-04-21 00:03 42.56835 21.03633 1780 ft 135 kts 355°
2026-04-21 00:03 42.57812 21.03540 2213 ft 148 kts 358°
2026-04-21 00:03 42.58888 21.03480 2754 ft 159 kts 359°
2026-04-21 00:03 42.60021 21.03446 3326 ft 166 kts 359°
2026-04-21 00:04 42.61190 21.03327 3908 ft 173 kts 348°
2026-04-21 00:04 42.62379 21.03084 4824 ft 174 kts 348°
2026-04-21 00:04 42.63563 21.02770 5682 ft 171 kts 329°
2026-04-21 00:04 42.64462 21.01781 6547 ft 165 kts 306°
2026-04-21 00:05 42.65108 21.00498 7321 ft 165 kts 302°
2026-04-21 00:05 42.65804 20.99143 7695 ft 187 kts 303°
2026-04-21 00:05 42.66581 20.97600 7808 ft 212 kts 303°
2026-04-21 00:05 42.67446 20.95907 8209 ft 216 kts 304°
2026-04-21 00:06 42.68325 20.94245 8690 ft 217 kts 303°
2026-04-21 00:06 42.69145 20.92523 9172 ft 217 kts 302°
2026-04-21 00:06 42.69987 20.90841 9631 ft 218 kts 303°
2026-04-21 00:06 42.70558 20.88937 10074 ft 220 kts 285°
2026-04-21 00:07 42.70976 20.86939 10493 ft 220 kts 289°
2026-04-21 00:07 42.71460 20.84955 10911 ft 221 kts 288°
2026-04-21 00:07 42.71907 20.82953 11333 ft 222 kts 287°
2026-04-21 00:07 42.72357 20.80937 11737 ft 223 kts 287°
2026-04-21 00:08 42.72810 20.78915 12136 ft 224 kts 287°
2026-04-21 00:08 42.73263 20.76886 12538 ft 225 kts 287°
2026-04-21 00:08 42.73722 20.74848 12911 ft 226 kts 287°
2026-04-21 00:08 42.74177 20.72803 13284 ft 227 kts 287°
2026-04-21 00:09 42.74635 20.70750 13666 ft 227 kts 287°
2026-04-21 00:09 42.75095 20.68688 14010 ft 228 kts 287°
2026-04-21 00:09 42.75557 20.66620 14314 ft 229 kts 287°
2026-04-21 00:09 42.76019 20.64533 14509 ft 235 kts 286°
2026-04-21 00:10 42.76501 20.62360 14601 ft 242 kts 286°
2026-04-21 00:10 42.76989 20.60168 14863 ft 242 kts 287°
2026-04-21 00:10 42.77478 20.57977 15101 ft 242 kts 286°
2026-04-21 00:10 42.77961 20.55784 15319 ft 243 kts 286°
2026-04-21 00:11 42.78451 20.53573 15556 ft 243 kts 286°
2026-04-21 00:11 42.78933 20.51393 15766 ft 244 kts 286°
2026-04-21 00:11 42.79420 20.49171 15905 ft 246 kts 286°
2026-04-21 00:11 42.79915 20.46942 16074 ft 246 kts 287°
2026-04-21 00:12 42.80416 20.44727 16308 ft 245 kts 285°
2026-04-21 00:12 42.80893 20.42499 16480 ft 245 kts 286°
2026-04-21 00:12 42.81390 20.40268 16650 ft 246 kts 286°
2026-04-21 00:12 42.81876 20.38031 16865 ft 247 kts 286°
2026-04-21 00:13 42.82366 20.35791 17050 ft 247 kts 286°
2026-04-21 00:13 42.82865 20.33548 17250 ft 248 kts 286°
2026-04-21 00:13 42.83422 20.31321 17432 ft 249 kts 294°
2026-04-21 00:13 42.84452 20.29408 17639 ft 253 kts 307°
2026-04-21 00:14 42.85583 20.27567 17839 ft 253 kts 305°
2026-04-21 00:14 42.86699 20.25697 18007 ft 256 kts 306°
2026-04-21 00:14 42.87852 20.23810 18005 ft 262 kts 306°
2026-04-21 00:14 42.89033 20.21872 18010 ft 269 kts 306°
2026-04-21 00:15 42.90235 20.19887 18016 ft 274 kts 306°
2026-04-21 00:15 42.91464 20.17870 18017 ft 279 kts 306°
2026-04-21 00:15 42.92710 20.15819 18018 ft 282 kts 306°
2026-04-21 00:15 42.93966 20.13747 18020 ft 285 kts 306°
2026-04-21 00:16 42.95219 20.11674 18010 ft 288 kts 306°
2026-04-21 00:16 42.96498 20.09567 18014 ft 290 kts 306°
2026-04-21 00:16 42.97789 20.07433 18019 ft 291 kts 306°
2026-04-21 00:16 42.99082 20.05301 18013 ft 293 kts 306°
2026-04-21 00:17 43.00376 20.03151 18015 ft 293 kts 306°
2026-04-21 00:17 43.01679 20.00998 18013 ft 294 kts 306°
2026-04-21 00:17 43.02983 19.98840 18010 ft 295 kts 306°
2026-04-21 00:17 43.04291 19.96677 18009 ft 295 kts 306°
2026-04-21 00:18 43.05592 19.94510 18010 ft 295 kts 306°
2026-04-21 00:18 43.06896 19.92340 18009 ft 295 kts 306°
2026-04-21 00:18 43.08199 19.90171 18003 ft 295 kts 306°
2026-04-21 00:18 43.09498 19.88004 18004 ft 294 kts 306°
2026-04-21 00:19 43.10812 19.85852 18006 ft 294 kts 306°
2026-04-21 00:19 43.12110 19.83683 18006 ft 295 kts 306°
2026-04-21 00:19 43.13403 19.81498 18006 ft 296 kts 306°
2026-04-21 00:19 43.14716 19.79329 18011 ft 296 kts 306°
2026-04-21 00:20 43.16029 19.77144 18006 ft 297 kts 306°
2026-04-21 00:20 43.17332 19.74957 18005 ft 296 kts 306°
2026-04-21 00:20 43.18629 19.72764 18005 ft 296 kts 306°
2026-04-21 00:20 43.19927 19.70614 18004 ft 297 kts 306°
2026-04-21 00:21 43.21239 19.68429 18001 ft 297 kts 306°
2026-04-21 00:21 43.22543 19.66234 17999 ft 297 kts 306°
2026-04-21 00:21 43.23849 19.64039 18003 ft 297 kts 306°
2026-04-21 00:21 43.25157 19.61851 18003 ft 297 kts 306°
2026-04-21 00:22 43.26462 19.59651 18001 ft 297 kts 306°
2026-04-21 00:22 43.27774 19.57449 18002 ft 298 kts 306°
2026-04-21 00:22 43.29081 19.55250 18002 ft 298 kts 306°
2026-04-21 00:22 43.30394 19.53046 18006 ft 298 kts 306°
2026-04-21 00:23 43.31703 19.50834 18002 ft 299 kts 306°
2026-04-21 00:23 43.33018 19.48621 18001 ft 299 kts 306°
2026-04-21 00:23 43.34329 19.46407 17998 ft 298 kts 306°
2026-04-21 00:23 43.35635 19.44197 18002 ft 299 kts 306°
2026-04-21 00:24 43.36954 19.41978 18002 ft 299 kts 306°
2026-04-21 00:24 43.38265 19.39758 18002 ft 299 kts 306°
2026-04-21 00:24 43.39577 19.37533 18002 ft 299 kts 306°
2026-04-21 00:24 43.40894 19.35318 18003 ft 300 kts 306°
2026-04-21 00:25 43.42204 19.33087 18007 ft 300 kts 306°
2026-04-21 00:25 43.43516 19.30854 18001 ft 300 kts 306°
2026-04-21 00:25 43.44837 19.28630 17999 ft 300 kts 306°
2026-04-21 00:25 43.46132 19.26431 17998 ft 299 kts 306°
2026-04-21 00:26 43.47433 19.24200 17995 ft 298 kts 306°
2026-04-21 00:26 43.48742 19.21984 17997 ft 298 kts 306°
2026-04-21 00:26 43.50047 19.19765 17988 ft 298 kts 306°
2026-04-21 00:26 43.51350 19.17547 17989 ft 298 kts 306°
2026-04-21 00:27 43.52652 19.15326 17992 ft 298 kts 306°
2026-04-21 00:27 43.53952 19.13100 17992 ft 298 kts 306°
2026-04-21 00:27 43.55260 19.10875 17994 ft 299 kts 306°
2026-04-21 00:27 43.56567 19.08645 17989 ft 299 kts 306°
2026-04-21 00:28 43.57869 19.06403 18006 ft 300 kts 306°
2026-04-21 00:28 43.59184 19.04157 17996 ft 301 kts 306°
2026-04-21 00:28 43.60498 19.01908 17996 ft 301 kts 306°
2026-04-21 00:28 43.61371 19.00419 17995 ft 301 kts 306°
2026-04-21 00:29 43.62678 18.98172 17990 ft 301 kts 305°
2026-04-21 00:29 43.63988 18.95915 17995 ft 301 kts 306°
2026-04-21 00:29 43.65297 18.93670 17994 ft 300 kts 306°
2026-04-21 00:29 43.67039 18.90684 17813 ft 304 kts 305°
2026-04-21 00:30 43.67942 18.89130 17545 ft 311 kts 305°
2026-04-21 00:30 43.69754 18.85987 16997 ft 320 kts 305°
2026-04-21 00:30 43.70706 18.84350 16712 ft 324 kts 306°
2026-04-21 00:30 43.72121 18.81919 16283 ft 328 kts 306°
2026-04-21 00:31 43.73556 18.79443 15841 ft 330 kts 306°
2026-04-21 00:31 43.74994 18.76952 15409 ft 332 kts 306°
2026-04-21 00:31 43.76440 18.74452 14965 ft 333 kts 306°
2026-04-21 00:31 43.77890 18.71952 14527 ft 333 kts 306°
2026-04-21 00:32 43.79338 18.69444 14084 ft 334 kts 306°
2026-04-21 00:32 43.80779 18.66934 13634 ft 333 kts 306°
2026-04-21 00:32 43.82227 18.64435 13179 ft 332 kts 306°
2026-04-21 00:32 43.83636 18.61966 12751 ft 331 kts 306°
2026-04-21 00:33 43.85090 18.59439 12322 ft 331 kts 307°
2026-04-21 00:33 43.86535 18.56947 11868 ft 331 kts 307°
2026-04-21 00:33 43.87948 18.54487 11444 ft 331 kts 306°
2026-04-21 00:33 43.89404 18.51951 10996 ft 331 kts 307°
2026-04-21 00:34 43.90808 18.49477 10571 ft 330 kts 306°
2026-04-21 00:34 43.92232 18.46988 10136 ft 329 kts 307°
2026-04-21 00:34 43.93693 18.44493 9680 ft 329 kts 309°
2026-04-21 00:34 43.95214 18.42185 9236 ft 328 kts 311°
2026-04-21 00:35 43.96713 18.39828 8813 ft 326 kts 309°
2026-04-21 00:35 43.98188 18.37450 8383 ft 319 kts 310°
2026-04-21 00:35 43.99579 18.35292 7990 ft 284 kts 310°
2026-04-21 00:35 44.00843 18.33350 7624 ft 258 kts 310°
2026-04-21 00:36 44.01986 18.31561 7305 ft 242 kts 309°
2026-04-21 00:36 44.03086 18.29797 6988 ft 241 kts 310°
2026-04-21 00:36 44.04198 18.28060 6672 ft 241 kts 310°
2026-04-21 00:36 44.05293 18.26350 6358 ft 233 kts 310°
2026-04-21 00:37 44.06349 18.24681 6050 ft 228 kts 310°
2026-04-21 00:37 44.07429 18.23129 6001 ft 219 kts 314°
2026-04-21 00:37 44.08458 18.21585 6006 ft 218 kts 310°
2026-04-21 00:37 44.09495 18.19987 6002 ft 227 kts 311°
2026-04-21 00:38 44.10589 18.18369 6005 ft 232 kts 312°
2026-04-21 00:38 44.11678 18.16681 6013 ft 235 kts 309°
2026-04-21 00:38 44.12659 18.14836 6010 ft 241 kts 296°
2026-04-21 00:38 44.12823 18.12539 5999 ft 246 kts 257°
2026-04-21 00:39 44.12006 18.10456 5994 ft 250 kts 226°
2026-04-21 00:39 44.10492 18.09317 5999 ft 251 kts 197°
2026-04-21 00:39 44.08861 18.08478 6008 ft 250 kts 206°
2026-04-21 00:39 44.07257 18.07533 6003 ft 251 kts 202°
2026-04-21 00:40 44.05630 18.06640 6006 ft 250 kts 202°
2026-04-21 00:40 44.03988 18.05835 5998 ft 250 kts 200°
2026-04-21 00:40 44.02326 18.05126 6001 ft 250 kts 197°
2026-04-21 00:40 44.00638 18.04515 6001 ft 251 kts 194°
2026-04-21 00:41 43.98920 18.04039 6001 ft 252 kts 191°
2026-04-21 00:41 43.97206 18.03683 5990 ft 253 kts 188°
2026-04-21 00:41 43.95435 18.03467 5848 ft 258 kts 184°
2026-04-21 00:41 43.93683 18.04011 5628 ft 267 kts 152°
2026-04-21 00:42 43.92420 18.05921 5371 ft 277 kts 118°
2026-04-21 00:42 43.91720 18.08422 5078 ft 279 kts 113°
2026-04-21 00:42 43.90802 18.10717 4802 ft 259 kts 122°
2026-04-21 00:42 43.90002 18.12803 4566 ft 233 kts 114°
2026-04-21 00:43 43.89345 18.14740 4354 ft 210 kts 116°
2026-04-21 00:43 43.88750 18.16324 4203 ft 160 kts 117°
2026-04-21 00:43 43.88257 18.17645 4179 ft 145 kts 117°
2026-04-21 00:43 43.87836 18.18773 4180 ft 129 kts 116°
2026-04-21 00:44 43.87395 18.19961 3925 ft 137 kts 116°
2026-04-21 00:44 43.86989 18.21082 3750 ft 123 kts 114°
2026-04-21 00:44 43.86612 18.22182 3459 ft 129 kts 115°
2026-04-21 00:45 43.85834 18.24298 3049 ft 119 kts 118°
2026-04-21 00:45 43.85412 18.25299 2806 ft 123 kts 118°
2026-04-21 00:45 43.85022 18.26369 2544 ft 126 kts 116°
2026-04-21 00:45 43.84624 18.27446 2335 ft 124 kts 118°
2026-04-21 00:46 43.84220 18.28482 2162 ft 121 kts 118°
2026-04-21 00:46 43.83834 18.29494 2019 ft 120 kts 117°
2026-04-21 00:46 43.83454 18.30517 1893 ft 119 kts 118°
2026-04-21 00:46 43.83063 18.31541 1738 ft 122 kts 116°
2026-04-21 00:47 43.82674 18.32578 1675 ft 118 kts 117°
2026-04-21 00:47 43.82346 18.33448 1686 ft 49 kts 118°
2026-04-21 00:47 43.82275 18.33654 1691 ft 12 kts 92°
2026-04-21 00:47 43.82341 18.33671 1686 ft 10 kts 345°
2026-04-21 00:48 43.82429 18.33647 1685 ft 14 kts 27°
2026-04-21 00:48 43.82486 18.33737 1683 ft 8 kts 25°
2026-04-21 00:48 43.82500 18.33746 1680 ft 0 kts 27°